FENGYUN 1C DEB, 29819

Orbit data source: Space-Track

FENGYUN 1C DEB, 29819 is space debris in SSO originally from a launch on Mon, 10 May 1999 UTC launched from the Taiyaun Space Center, China (TSC). Fengyun 1C debris stems from the Chinese weather satellite Fengyun-1C, which was intentionally destroyed by a Chinese anti-satellite missile in 2007. This event dramatically increased the amount of space debris, with thousands of trackable fragments posing hazards to satellites and human spaceflight. The Fengyun 1C debris cloud has become a focal point in discussions about space sustainability and the need for international regulations to prevent the creation of new debris.

Loading next visibility...
Identifier
29819, 1999-025DM
Orbit
SSO
Country
Flag of CNCN / PRC
Related business
Manufacturer
Unknown
Mission
Spacecraft
Bus & Motor
Unknown
Mass
Unknown
Launch date (UTC)
1999-05-10 (27 years ago)
Launch vehicle
Unknown
Launch site
Taiyaun Space Center, China (TSC)
Object type
Payload
Rocket body
Debris
Shape & HBR
Unknown shape, 0.1 m
Radar Cross Section
Medium (>0.1 m² and <1 m²)

Expand to show TLE details & history
Last TLE update: 20 hours ago

TLE from 20 hours ago
0 FENGYUN 1C DEB
1 29819U 99025DM  26254.95112073  .00000542  00000-0  32360-3 0  9999
2 29819  98.7618 232.9916 0190823  22.9979  47.7707 14.02459529  4505
Epoch: 2026-09-11T22:49Z
TLE epoch observation values (Epoch: 2026-09-11T22:49:36.831Z)
Latitude
70.49067°
Longitude
-126.01781°
Altitude
805.735 km
Speed
7.504 km/s
True Right ascension
13h 49m 24s
True Declination
70° 22' 58"
Sunlit
Object was in daylight at epoch
Visualization orbit readout
Latitude
Unknown
Longitude
Unknown
Altitude
Unknown
Speed
Unknown
Apparent Right ascension
Unknown
Apparent Declination
Unknown
Sunlit
N/A
Visualization observer readout
Local Sidereal Time
11:42:03
Azimuth
Unknown
Elevation
Unknown
Doppler factor
Unknown
Orbital elements
Apogee altitude
1,021.023 km
Perigee altitude
743.925 km
Semi-major axis
7,260.611 km
Eccentricity
0.01908
Inclination
98.7618°
RAAN
232.9916°
Arg. of periapsis
22.9979°
True anomaly
49.41598°
Mean anomaly
47.7707°
Eccentric anomaly
48.59071°
Mean motion
3.50819 °/min
Orbital period
102.62 mins
BSTAR
0.0003236
Loading maneuver chart data...
Computing Atmospheric mass density...

Documentation

Showing up to 5 results
|